[[{"header":{"parameterUnit":"m.s-1","parameterCategory":2,"la1":30.2991,"la2":30.254,"lo1":-89.0895,"lo2":-89.0444,"dy":0.0017,"dx":0.0017,"nx":28,"ny":28,"refTime":"2024-08-06T21:00:00:Z","depth":"0","parameterNumber":2,"parameterNumberName":"U-component_of_CURRENTS"},"data":[0,0,0,0,0,0,0,0,0,0,0,0,0,0,0,0,0,0,0,0,0,0,0,0,0,0,0,0,0,0,0,0,0,0,0,0,0,0,0,0,0,0,0,0,0,0,0,0,0,0,0,0,0,0,0,0,0,0,0.4173,0.4174,0,0.415,0.4149,0.4148,0.4028,0.4026,0.4024,0.4022,0.3889,0.3887,0.3886,0,0,0,0,0,0,0,0,0,0,0,0,0,0.4083,0.4085,0.4173,0.4174,0.4174,0.415,0.4149,0.4148,0.4028,0.4026,0.4023,0.4021,0.3889,0.3887,0.3885,0,0,0,0,0,0,0,0,0,0,0,0,0,0.4089,0.4085,0.4173,0.4118,0.4113,0.415,0.4149,0.4147,0.4029,0.4026,0.4023,0.402,0.389,0.3887,0.3885,0.3933,0,0,0.3878,0.3877,0,0,0,0,0,0,0,0,0.4089,0.4092,0.4125,0.4122,0.4117,0.4096,0.4068,0.4073,0.403,0.4052,0.4022,0.4018,0.3956,0.3948,0.394,0.3927,0.3921,0.3878,0.3876,0.3875,0.3874,0,0,0,0,0,0,0,0.4089,0.4092,0.4156,0.4126,0.4121,0.4084,0.408,0.4068,0.4013,0.405,0.4043,0.4055,0.3951,0.3943,0.3936,0.3919,0.3878,0.3876,0.3874,0.3873,0.3949,0.3952,0,0,0,0,0,0,0.4114,0.4092,0.4156,0.4156,0.4104,0.4089,0.4085,0.4099,0.4016,0.4003,0.4058,0.405,0.3948,0.3939,0.3931,0.3975,0.3875,0.3873,0.3872,0.3945,0.3949,0.3953,0,0,0,0,0,0,0.4112,0.412,0.4158,0.4129,0.4132,0.4095,0.4111,0.41,0.4084,0.4024,0.4007,0.4052,0.3945,0.3934,0.393,0.3969,0.3872,0.387,0.3941,0.3947,0.3951,0.4068,0,0,0,0,0,0,0.411,0.412,0.4145,0.4132,0.4135,0.4189,0.4115,0.4102,0.41,0.4089,0.4015,0.3999,0.3942,0.3934,0.3928,0.3964,0.3868,0.3937,0.3944,0.395,0.406,0.4077,0.4091,0,0,0,0,0,0.4107,0.4151,0.4146,0.4155,0.4169,0.4192,0.419,0.4146,0.4104,0.4114,0.4066,0.4001,0.397,0.3935,0.3927,0.3962,0.3934,0.3942,0.3949,0.4053,0.4074,0.4091,0,0,0,0,0,0,0.412,0.4145,0.4137,0.4186,0.4197,0.4175,0.419,0.4161,0.4134,0.4116,0.4039,0.4023,0.404,0.4,0.3963,0.401,0.3945,0.3951,0.4027,0.4046,0.4061,0.412,0.3866,0,0,0,0,0,0.4144,0.4184,0.4194,0.4235,0.4245,0.4221,0.4227,0.4201,0.4178,0.416,0.4114,0.4079,0.4073,0.4054,0.4042,0.4064,0.4086,0.4087,0.4103,0.4116,0.4163,0.4232,0.4258,0.3978,0.3978,0.3978,0,0,0.4159,0.4183,0.4202,0.4242,0.4241,0.4273,0.4213,0.4233,0.4255,0.4155,0.4166,0.4135,0.4096,0.4119,0.4123,0.408,0.4211,0.4126,0.4137,0.4178,0.4243,0.427,0.4295,0.3984,0.3983,0.3982,0,0,0.421,0.4234,0.4278,0.43,0.4327,0.4321,0.4332,0.4323,0.4312,0.4339,0.4275,0.4284,0.4255,0.4244,0.4232,0.4338,0.43,0.4319,0.4429,0.4494,0.4518,0.4539,0.4614,0.4641,0.4315,0.4315,0.4315,0,0.4227,0.4284,0.4295,0.4344,0.4367,0.4347,0.4388,0.4397,0.4387,0.4399,0.436,0.4372,0.4331,0.4372,0.4408,0.4374,0.4406,0.4348,0.4515,0.4536,0.4555,0.4627,0.4655,0.4322,0.4321,0.432,0.432,0,0.4305,0.4351,0.4382,0.4437,0.4467,0.4503,0.4521,0.4546,0.4536,0.4538,0.4587,0.4556,0.456,0.4552,0.4511,0.4621,0.4599,0.4532,0.4463,0.4591,0.4658,0.4686,0.4331,0.4329,0.4327,0.4325,0,0,0.4318,0.4417,0.4421,0.4453,0.4515,0.4536,0.4609,0.4658,0.4684,0.4715,0.4763,0.4793,0.4774,0.4768,0.4717,0.478,0.4941,0.4725,0.4726,0.4797,0.5108,0.5021,0.5042,0.4891,0.4896,0.49,0.5103,0,0.4364,0.4464,0.4503,0.4577,0.4621,0.4649,0.4703,0.4749,0.4778,0.4823,0.4852,0.4873,0.4853,0.484,0.4921,0.491,0.5017,0.4894,0.498,0.4984,0.4887,0.5072,0.4852,0.5008,0.5129,0.5134,0.5137,0,0.4407,0.4471,0.4553,0.4632,0.4649,0.4687,0.4757,0.4809,0.4891,0.4912,0.4986,0.4986,0.5089,0.5038,0.5196,0.5113,0.5164,0.5178,0.5183,0.5088,0.4949,0.49,0.5052,0.489,0.5178,0.5175,0.5172,0,0.438,0.4492,0.4553,0.4584,0.4676,0.4708,0.4752,0.4828,0.4879,0.4967,0.5011,0.5117,0.5163,0.5262,0.5335,0.5264,0.5515,0.5392,0.5394,0.5387,0.5214,0.5183,0.5217,0.5578,0.5578,0.5577,0.5577,0,0.4399,0.4432,0.4537,0.4563,0.4612,0.4688,0.4734,0.4795,0.4901,0.4943,0.5046,0.5107,0.5228,0.5364,0.5415,0.5518,0.5594,0.5489,0.5458,0.5248,0.5219,0.5077,0.5007,0.5585,0.5583,0.5582,0.558,0,0.4326,0.4409,0.4467,0.4569,0.4593,0.4619,0.4716,0.4753,0.4866,0.4937,0.4975,0.5154,0.5287,0.5437,0.5592,0.5604,0.5542,0.5727,0.5488,0.5425,0.5173,0.5118,0.5034,0.4899,0.5721,0.572,0.572,0,0.4289,0.432,0.4429,0.4451,0.4483,0.4538,0.4564,0.4701,0.4748,0.4932,0.4961,0.5161,0.5259,0.5518,0.5586,0.5723,0.554,0.5565,0.5386,0.5203,0.512,0.4933,0.4812,0.5216,0.5212,0.5208,0.5205,0,0.42,0.424,0.4287,0.4344,0.4377,0.442,0.448,0.4528,0.4665,0.4747,0.4886,0.5008,0.5264,0.5287,0.5483,0.5526,0.5261,0.5487,0.5359,0.4817,0.4559,0.4395,0.5053,0.5172,0.5175,0.5177,0.5179,0.5181,0.4103,0.4117,0.4187,0.4213,0.4248,0.427,0.4251,0.4338,0.4407,0.4477,0.4697,0.4763,0.4929,0.5159,0.5189,0.5057,0.5076,0.4867,0.4852,0.4708,0.4462,0.5068,0.5093,0.5095,0.5098,0.51,0.5102,0,0.3995,0.4025,0.4052,0.4075,0.4034,0.4117,0.4152,0.4104,0.4095,0.4227,0.4326,0.4398,0.4443,0.4545,0.4575,0.4448,0.428,0.4316,0.3998,0.3937,0.4536,0.4392,0.4189,0.4189,0.4189,0.419,0.419,0.419,0.3945,0.3939,0.3957,0.3855,0.3845,0.3748,0.3735,0.3699,0.3742,0.3705,0.3702,0.3829,0.4046,0.4125,0.4003,0.3934,0.3658,0.3516,0.3542,0.3946,0.3994,0.4039,0.3888,0.3582,0.3581,0.2755,0.2749,0.2744]},{"header":{"parameterUnit":"m.s-1","parameterCategory":2,"la1":30.2991,"la2":30.254,"lo1":-89.0895,"lo2":-89.0444,"dy":0.0017,"dx":0.0017,"nx":28,"ny":28,"refTime":"2024-08-06T21:00:00:Z","depth":"0","parameterNumber":3,"parameterNumberName":"V-component_of_CURRENTS"},"data":[0,0,0,0,0,0,0,0,0,0,0,0,0,0,0,0,0,0,0,0,0,0,0,0,0,0,0,0,0,0,0,0,0,0,0,0,0,0,0,0,0,0,0,0,0,0,0,0,0,0,0,0,0,0,0,0,0,0,-0.0441,-0.0441,0,-0.0511,-0.0512,-0.0513,-0.056,-0.056,-0.0561,-0.0561,-0.0633,-0.0635,-0.0636,0,0,0,0,0,0,0,0,0,0,0,0,0,-0.0347,-0.0348,-0.044,-0.0441,-0.0442,-0.0511,-0.0512,-0.0513,-0.056,-0.056,-0.0561,-0.0561,-0.0633,-0.0634,-0.0636,0,0,0,0,0,0,0,0,0,0,0,0,0,-0.0398,-0.0349,-0.044,-0.0475,-0.0479,-0.0511,-0.0512,-0.0513,-0.056,-0.056,-0.0561,-0.0562,-0.0632,-0.0634,-0.0637,-0.0638,0,0,-0.0644,-0.0645,0,0,0,0,0,0,0,0,-0.0395,-0.0402,-0.0469,-0.0473,-0.0477,-0.0528,-0.0506,-0.0555,-0.056,-0.0528,-0.0561,-0.0562,-0.0598,-0.0603,-0.0614,-0.0642,-0.0645,-0.0644,-0.0645,-0.0646,-0.0647,0,0,0,0,0,0,0,-0.0392,-0.0399,-0.0468,-0.047,-0.0475,-0.0487,-0.0495,-0.0515,-0.0558,-0.0531,-0.0535,-0.0544,-0.0601,-0.0612,-0.0616,-0.0646,-0.0644,-0.0646,-0.0647,-0.0648,-0.0614,-0.0612,0,0,0,0,0,0,-0.0385,-0.0396,-0.0465,-0.047,-0.0438,-0.0489,-0.0497,-0.051,-0.0558,-0.0566,-0.0543,-0.0546,-0.0607,-0.0613,-0.0619,-0.0574,-0.0646,-0.0648,-0.065,-0.0616,-0.0614,-0.0611,0,0,0,0,0,0,-0.0382,-0.039,-0.0462,-0.0435,-0.0445,-0.049,-0.0504,-0.0511,-0.0519,-0.0568,-0.0576,-0.0543,-0.0608,-0.0615,-0.0612,-0.0579,-0.0649,-0.0651,-0.0619,-0.0616,-0.0612,-0.0516,0,0,0,0,0,0,-0.038,-0.0389,-0.0387,-0.0434,-0.0446,-0.0464,-0.0504,-0.0512,-0.0525,-0.0529,-0.057,-0.0578,-0.0609,-0.0608,-0.0614,-0.0583,-0.0653,-0.0622,-0.0618,-0.0614,-0.0522,-0.0509,-0.0499,0,0,0,0,0,-0.0376,-0.0364,-0.0387,-0.0395,-0.0446,-0.0463,-0.0469,-0.0502,-0.0524,-0.0514,-0.0536,-0.0576,-0.0585,-0.0608,-0.0616,-0.0585,-0.0624,-0.0619,-0.0614,-0.0527,-0.0512,-0.0499,0,0,0,0,0,0,-0.0317,-0.037,-0.0395,-0.04,-0.0424,-0.0471,-0.0465,-0.0494,-0.0505,-0.0507,-0.0555,-0.0562,-0.0545,-0.0573,-0.0597,-0.0559,-0.0608,-0.0604,-0.0539,-0.0526,-0.0514,-0.0495,-0.0655,0,0,0,0,0,-0.0305,-0.0314,-0.0363,-0.0364,-0.0374,-0.0419,-0.0429,-0.0454,-0.0477,-0.0483,-0.0512,-0.0529,-0.053,-0.0535,-0.0545,-0.053,-0.0536,-0.0511,-0.0499,-0.0489,-0.0475,-0.0448,-0.0433,-0.0594,-0.0594,-0.0595,0,0,-0.0283,-0.0312,-0.0317,-0.0352,-0.0375,-0.037,-0.0425,-0.0433,-0.0424,-0.0488,-0.0474,-0.0493,-0.0515,-0.0493,-0.0487,-0.0513,-0.0443,-0.0483,-0.0474,-0.0466,-0.0441,-0.0426,-0.0412,-0.0591,-0.0592,-0.0592,0,0,-0.0232,-0.0267,-0.0254,-0.0269,-0.0299,-0.0326,-0.0324,-0.0364,-0.0375,-0.037,-0.0401,-0.0392,-0.0414,-0.0409,-0.0413,-0.0342,-0.0383,-0.035,-0.028,-0.0253,-0.024,-0.0229,-0.0204,-0.0191,-0.0345,-0.0345,-0.0345,0,-0.0199,-0.0197,-0.0248,-0.0234,-0.0233,-0.03,-0.0272,-0.0292,-0.0323,-0.0315,-0.0349,-0.0339,-0.0367,-0.0319,-0.0297,-0.0316,-0.0312,-0.0335,-0.0239,-0.0228,-0.0218,-0.0195,-0.0183,-0.0339,-0.034,-0.0341,-0.0341,0,-0.0137,-0.0135,-0.0123,-0.0132,-0.0135,-0.0123,-0.016,-0.0163,-0.0191,-0.0208,-0.0178,-0.0207,-0.0198,-0.0203,-0.0235,-0.0168,-0.0192,-0.0228,-0.0276,-0.0195,-0.0177,-0.0165,-0.0332,-0.0334,-0.0335,-0.0337,0,0,-0.0057,-0.0076,-0.0069,-0.0057,-0.0079,-0.0074,-0.0058,-0.0053,-0.0032,-0.0058,-0.0014,-0.0019,-0.0042,-0.0045,-0.0076,-0.006,0.0008,-0.0112,-0.0113,-0.0091,0.0071,0.0006,0.0012,-0.0017,-0.0014,-0.0012,0.0058,0,0.0013,0.0054,0.003,0.0082,0.0101,0.0058,0.0087,0.0082,0.006,0.0083,0.0062,0.0088,0.0021,0.0031,0.0041,0.0015,0.0042,-0.0007,-0.0008,-0.0007,-0.0078,0.0025,0.0005,0.0062,0.0069,0.0071,0.0073,0,0.0094,0.0106,0.0164,0.0184,0.0193,0.0217,0.0244,0.0254,0.0257,0.0252,0.0262,0.023,0.026,0.0183,0.0199,0.0168,0.0137,0.0109,0.0111,0.0024,-0.005,-0.0019,0.0083,-0.0143,0.009,0.0089,0.0087,0,0.0176,0.0207,0.0255,0.0262,0.0274,0.0303,0.0308,0.0313,0.0341,0.0355,0.0391,0.039,0.0415,0.0374,0.0302,0.0259,0.0312,0.0244,0.0166,0.0161,0.0132,0.012,0.0012,0.0275,0.0275,0.0274,0.0274,0,0.026,0.0299,0.0297,0.0323,0.0393,0.0377,0.0447,0.0443,0.0478,0.0541,0.0487,0.0559,0.0464,0.0463,0.0374,0.0317,0.0375,0.0209,0.0186,0.0165,0.0156,-0.0057,-0.0167,0.0277,0.0276,0.0276,0.0276,0,0.0331,0.0333,0.0384,0.0411,0.0429,0.047,0.0523,0.0571,0.0594,0.0675,0.0694,0.0715,0.0723,0.0619,0.0569,0.0428,0.0247,0.0327,0.0303,0.0275,-0.0058,-0.016,-0.0255,-0.0333,0.0249,0.0248,0.0248,0,0.0361,0.0397,0.0441,0.0475,0.0487,0.0544,0.0595,0.0625,0.0684,0.0783,0.085,0.0884,0.0956,0.0851,0.0619,0.0468,0.0276,0.0288,0.0189,-0.0055,-0.0185,-0.0267,-0.0331,0.0203,0.0202,0.0201,0.02,0,0.041,0.0427,0.046,0.0535,0.0593,0.0669,0.0742,0.0822,0.0878,0.0996,0.1159,0.1233,0.1109,0.098,0.0705,0.0538,0.0108,0.0259,0.0031,-0.0203,-0.0317,-0.041,0.0125,0.0192,0.0193,0.0193,0.0194,0.0194,0.0431,0.0465,0.0515,0.0592,0.0674,0.0798,0.0899,0.1017,0.1187,0.1401,0.1417,0.16,0.1275,0.0929,0.0646,0.0041,0.0076,-0.0156,-0.0246,-0.0296,-0.0423,0.008,0.0089,0.0089,0.0089,0.009,0.009,0,0.0443,0.0492,0.0567,0.068,0.0804,0.0835,0.1009,0.1155,0.141,0.1619,0.1809,0.1768,0.1354,0.0856,0.0079,-0.037,-0.0533,-0.0634,-0.0758,-0.0786,-0.0311,-0.0373,-0.0494,-0.0494,-0.0494,-0.0493,-0.0493,-0.0493,0.0447,0.0516,0.0569,0.0773,0.0878,0.1082,0.1208,0.1443,0.1644,0.1978,0.2125,0.2192,0.1777,0.0363,-0.0651,-0.0899,-0.117,-0.1247,-0.1368,-0.1084,-0.1047,-0.1012,-0.11,-0.1371,-0.1372,-0.1806,-0.1811,-0.1814]}],[{"header":{"parameterUnit":"m.s-1","parameterCategory":2,"la1":30.2991,"la2":30.254,"lo1":-89.0895,"lo2":-89.0444,"dy":0.0017,"dx":0.0017,"nx":28,"ny":28,"refTime":"2024-08-06T21:00:00:Z","depth":"2","parameterNumber":2,"parameterNumberName":"U-component_of_CURRENTS"},"data":[0,0,0,0,0,0,0,0,0,0,0,0,0,0,0,0,0,0,0,0,0,0,0,0,0,0,0,0,0,0,0,0,0,0,0,0,0,0,0,0,0,0,0,0,0,0,0,0,0,0,0,0,0,0,0,0,0,0,0.287,0.2871,0,0.296,0.2961,0.2961,0.2985,0.2985,0.2985,0.2984,0.2927,0.2925,0.2924,0,0,0,0,0,0,0,0,0,0,0,0,0,0.2761,0.2762,0.287,0.2871,0.2873,0.296,0.2961,0.2962,0.2985,0.2985,0.2985,0.2984,0.2927,0.2926,0.2924,0,0,0,0,0,0,0,0,0,0,0,0,0,0.2823,0.2763,0.287,0.2897,0.29,0.2959,0.2961,0.2962,0.2985,0.2985,0.2984,0.2984,0.2928,0.2926,0.2924,0.2922,0,0,0.2918,0.2917,0,0,0,0,0,0,0,0,0.2819,0.2826,0.2891,0.2895,0.2899,0.2963,0.2902,0.2942,0.2985,0.295,0.2984,0.2984,0.2927,0.2925,0.2942,0.2919,0.2917,0.2918,0.2917,0.2916,0.2916,0,0,0,0,0,0,0,0.2815,0.2823,0.2903,0.2893,0.2898,0.2919,0.2927,0.291,0.2936,0.2953,0.2956,0.297,0.2928,0.2944,0.294,0.2916,0.2918,0.2916,0.2915,0.2915,0.3042,0.3046,0,0,0,0,0,0,0.2807,0.2819,0.29,0.2906,0.286,0.2921,0.293,0.2941,0.2939,0.294,0.297,0.2971,0.2947,0.2942,0.2938,0.3046,0.2916,0.2914,0.2913,0.3037,0.3043,0.3048,0,0,0,0,0,0,0.2805,0.2814,0.2897,0.2866,0.2879,0.2924,0.2936,0.2943,0.2982,0.2954,0.2952,0.3005,0.2947,0.2941,0.2948,0.3039,0.2914,0.2912,0.3032,0.3039,0.3045,0.3189,0,0,0,0,0,0,0.2801,0.2812,0.2824,0.2866,0.288,0.2939,0.2937,0.2945,0.2991,0.2993,0.2982,0.2976,0.2946,0.2951,0.2946,0.3034,0.291,0.3026,0.3035,0.3043,0.3179,0.32,0.3218,0,0,0,0,0,0.2797,0.2805,0.2824,0.2835,0.2893,0.2941,0.295,0.2979,0.2994,0.3012,0.3014,0.2977,0.3003,0.2951,0.2945,0.3035,0.3022,0.3033,0.3042,0.317,0.3196,0.3218,0,0,0,0,0,0,0.2769,0.281,0.2831,0.2854,0.2902,0.2946,0.2971,0.2998,0.3019,0.3027,0.2998,0.2992,0.3055,0.3019,0.2963,0.3105,0.3022,0.3031,0.3122,0.3146,0.3165,0.3161,0.2909,0,0,0,0,0,0.2769,0.2782,0.2837,0.2858,0.2888,0.294,0.2967,0.2995,0.3019,0.3032,0.3037,0.3054,0.3092,0.3091,0.3111,0.3148,0.3131,0.3218,0.3238,0.3254,0.3252,0.3369,0.3399,0.3081,0.3081,0.308,0,0,0.2763,0.279,0.2797,0.2853,0.2896,0.2942,0.2955,0.301,0.3057,0.3017,0.3083,0.3118,0.3121,0.3193,0.3219,0.3166,0.3325,0.3267,0.3281,0.3269,0.3383,0.3414,0.3441,0.3088,0.3086,0.3085,0,0,0.2761,0.279,0.2809,0.285,0.2922,0.2958,0.2982,0.3055,0.3098,0.3159,0.318,0.3259,0.3282,0.3329,0.3347,0.3481,0.3438,0.3512,0.3588,0.3704,0.373,0.3753,0.3712,0.3731,0.3508,0.3509,0.3509,0,0.2763,0.2791,0.2825,0.2865,0.2908,0.2969,0.302,0.3071,0.3141,0.3193,0.3193,0.3343,0.3354,0.3463,0.3534,0.3526,0.3534,0.349,0.3728,0.3751,0.3772,0.3725,0.3744,0.3517,0.3516,0.3515,0.3514,0,0.2775,0.2813,0.2835,0.2901,0.2951,0.3004,0.3084,0.3153,0.3224,0.3285,0.3429,0.3479,0.3561,0.3621,0.3613,0.3795,0.3728,0.375,0.366,0.3813,0.3752,0.3769,0.3528,0.3526,0.3523,0.3521,0,0,0.2757,0.2828,0.2843,0.2885,0.2981,0.3024,0.312,0.323,0.3307,0.3417,0.353,0.367,0.3726,0.3755,0.3798,0.3911,0.4066,0.3906,0.3908,0.3846,0.4227,0.4099,0.4102,0.4153,0.4159,0.4163,0.41,0,0.2775,0.283,0.2877,0.2959,0.3003,0.3094,0.3174,0.3281,0.3382,0.3499,0.3621,0.3737,0.3765,0.3838,0.3963,0.4062,0.4129,0.4073,0.4102,0.4099,0.3957,0.4127,0.3826,0.3742,0.4115,0.4118,0.412,0,0.2776,0.2821,0.2888,0.2994,0.3029,0.3096,0.3248,0.3327,0.3491,0.3577,0.372,0.3801,0.3976,0.3991,0.4193,0.4165,0.4204,0.4259,0.4259,0.4102,0.4008,0.3666,0.3757,0.4147,0.4145,0.4143,0.4141,0,0.272,0.2832,0.2883,0.2917,0.3045,0.3124,0.321,0.3364,0.344,0.3635,0.3719,0.3906,0.402,0.4151,0.4276,0.4255,0.4475,0.4437,0.432,0.4303,0.4029,0.3981,0.4571,0.4571,0.4571,0.4571,0.4571,0,0.2685,0.2739,0.2871,0.2892,0.2977,0.3104,0.3213,0.3319,0.3488,0.3589,0.3757,0.3864,0.4097,0.4237,0.4304,0.4368,0.4487,0.4349,0.4326,0.4062,0.4021,0.4367,0.4344,0.4569,0.4569,0.457,0.457,0,0.2569,0.2666,0.272,0.2874,0.2935,0.2987,0.3162,0.3247,0.3427,0.3568,0.3638,0.3872,0.4043,0.4199,0.4403,0.4385,0.4465,0.4445,0.4046,0.3981,0.4166,0.4152,0.4251,0.4247,0.4244,0.4241,0.4239,0,0.2498,0.2511,0.2646,0.2692,0.2764,0.2882,0.2969,0.3174,0.3268,0.3553,0.3611,0.3838,0.395,0.4146,0.4196,0.4232,0.4375,0.3951,0.3876,0.4189,0.4157,0.4148,0.4139,0.3516,0.3508,0.3502,0.3496,0,0.2342,0.2394,0.2432,0.2524,0.2628,0.2724,0.288,0.2933,0.3198,0.3323,0.3502,0.3623,0.3811,0.375,0.3843,0.383,0.3925,0.3811,0.4326,0.3664,0.3499,0.3466,0.3481,0.3437,0.3443,0.3448,0.3451,0.3453,0.2222,0.2189,0.2266,0.2365,0.2478,0.2597,0.2639,0.2785,0.2901,0.307,0.3262,0.3337,0.3413,0.3367,0.3322,0.3315,0.3552,0.3418,0.3438,0.3465,0.3412,0.3255,0.3126,0.3129,0.3133,0.3136,0.3139,0,0.2059,0.2093,0.213,0.2253,0.2347,0.2491,0.2612,0.2613,0.2686,0.2804,0.2908,0.2717,0.2701,0.281,0.2704,0.2721,0.2696,0.2624,0.2573,0.2634,0.2688,0.2596,0.2092,0.2088,0.2085,0.2082,0,0,0.1992,0.1957,0.1999,0.2136,0.2273,0.2377,0.2443,0.2364,0.2381,0.2332,0.234,0.2513,0.2679,0.2299,0.2288,0.2181,0.2377,0.2099,0.2944,0.2941,0.299,0.316,0.3089,0,0,0,0,0]},{"header":{"parameterUnit":"m.s-1","parameterCategory":2,"la1":30.2991,"la2":30.254,"lo1":-89.0895,"lo2":-89.0444,"dy":0.0017,"dx":0.0017,"nx":28,"ny":28,"refTime":"2024-08-06T21:00:00:Z","depth":"2","parameterNumber":3,"parameterNumberName":"V-component_of_CURRENTS"},"data":[0,0,0,0,0,0,0,0,0,0,0,0,0,0,0,0,0,0,0,0,0,0,0,0,0,0,0,0,0,0,0,0,0,0,0,0,0,0,0,0,0,0,0,0,0,0,0,0,0,0,0,0,0,0,0,0,0,0,0.0036,0.0035,0,-0.0031,-0.0032,-0.0033,-0.0107,-0.0108,-0.0109,-0.011,-0.0177,-0.0178,-0.0178,0,0,0,0,0,0,0,0,0,0,0,0,0,0.0059,0.0059,0.0036,0.0035,0.0034,-0.0031,-0.0032,-0.0034,-0.0107,-0.0108,-0.0109,-0.011,-0.0176,-0.0177,-0.0179,0,0,0,0,0,0,0,0,0,0,0,0,0,0.0024,0.0059,0.0036,-0.0009,-0.0013,-0.0031,-0.0032,-0.0034,-0.0107,-0.0108,-0.011,-0.0111,-0.0176,-0.0177,-0.0179,-0.016,0,0,-0.0183,-0.0184,0,0,0,0,0,0,0,0,0.0026,0.0023,-0.0002,-0.0006,-0.0011,-0.0061,-0.0049,-0.0076,-0.0107,-0.0073,-0.011,-0.0111,-0.0135,-0.014,-0.0153,-0.0164,-0.0166,-0.0183,-0.0184,-0.0185,-0.0185,0,0,0,0,0,0,0,0.0029,0.0025,0.0007,-0.0002,-0.0008,-0.004,-0.0046,-0.0055,-0.0098,-0.0076,-0.0081,-0.0085,-0.0139,-0.0151,-0.0155,-0.0167,-0.0183,-0.0184,-0.0185,-0.0186,-0.0248,-0.0249,0,0,0,0,0,0,0.0045,0.0028,0.0009,0.0005,0.0007,-0.0039,-0.0046,-0.0045,-0.0098,-0.0106,-0.0084,-0.0089,-0.0148,-0.0153,-0.0157,-0.018,-0.0185,-0.0186,-0.0187,-0.0247,-0.0248,-0.0249,0,0,0,0,0,0,0.0046,0.0044,0.0012,0.0016,0.001,-0.0037,-0.0036,-0.0045,-0.0075,-0.0103,-0.0113,-0.0106,-0.0149,-0.0155,-0.0182,-0.0182,-0.0187,-0.0188,-0.0246,-0.0247,-0.0249,-0.0198,0,0,0,0,0,0,0.0047,0.0045,0.0045,0.0018,0.0011,0.0002,-0.0035,-0.0046,-0.0073,-0.008,-0.0124,-0.0131,-0.0151,-0.0179,-0.0183,-0.0184,-0.0189,-0.0245,-0.0247,-0.0248,-0.0199,-0.0198,-0.0197,0,0,0,0,0,0.0048,0.0066,0.0046,0.0043,0.0014,0.0003,-0.0004,-0.0044,-0.0073,-0.0078,-0.0117,-0.0131,-0.0192,-0.0181,-0.0185,-0.0186,-0.0244,-0.0246,-0.0248,-0.02,-0.0198,-0.0197,0,0,0,0,0,0,0.0081,0.0059,0.0036,0.0047,0.0023,-0.0009,-0.0018,-0.0046,-0.0082,-0.0097,-0.0131,-0.014,-0.0164,-0.0186,-0.0172,-0.0213,-0.0224,-0.0227,-0.0186,-0.0185,-0.0184,-0.0143,-0.019,0,0,0,0,0,0.0089,0.0092,0.0063,0.007,0.0056,0.0014,0.0001,-0.0026,-0.0057,-0.0076,-0.0111,-0.015,-0.0171,-0.0187,-0.0211,-0.0223,-0.0224,-0.0233,-0.0232,-0.023,-0.0204,-0.0188,-0.0181,-0.0255,-0.0255,-0.0255,0,0,0.0108,0.0093,0.0096,0.0076,0.0049,0.0047,0.0002,-0.0017,-0.0021,-0.0074,-0.0102,-0.0142,-0.0175,-0.0195,-0.0209,-0.0214,-0.0221,-0.0233,-0.0231,-0.0204,-0.0189,-0.0181,-0.0174,-0.0256,-0.0256,-0.0256,0,0,0.0151,0.0125,0.014,0.0121,0.0086,0.0064,0.0058,0.0014,-0.0014,-0.0039,-0.0083,-0.0119,-0.0162,-0.0181,-0.0195,-0.0199,-0.0213,-0.0226,-0.0183,-0.0169,-0.0161,-0.0154,-0.0181,-0.0176,-0.0226,-0.0226,-0.0226,0,0.0173,0.0182,0.0143,0.0147,0.0138,0.0075,0.0087,0.0059,0.0009,-0.0,-0.0044,-0.0105,-0.0146,-0.0146,-0.0164,-0.0191,-0.0199,-0.0181,-0.0162,-0.0155,-0.0149,-0.0177,-0.0173,-0.0224,-0.0224,-0.0224,-0.0225,0,0.0223,0.0222,0.0227,0.0211,0.02,0.0196,0.0155,0.0133,0.0084,0.0056,0.0024,-0.0038,-0.0066,-0.0102,-0.0136,-0.0122,-0.015,-0.0157,-0.0153,-0.0138,-0.0171,-0.0167,-0.0221,-0.0222,-0.0222,-0.0223,0,0,0.0291,0.0269,0.0267,0.027,0.0228,0.0232,0.0223,0.0209,0.0218,0.0143,0.0157,0.0078,0.0034,0.0016,-0.004,-0.0046,-0.0043,-0.0086,-0.0086,-0.009,-0.0036,-0.0098,-0.0101,-0.004,-0.0039,-0.0037,-0.0088,0,0.0337,0.0366,0.0338,0.0363,0.0373,0.0321,0.0329,0.0307,0.027,0.0265,0.0194,0.0178,0.0083,0.0067,0.0046,-0.0002,-0.0025,-0.003,-0.0069,-0.007,-0.0108,-0.0095,-0.0097,-0.0145,-0.0085,-0.0085,-0.0084,0,0.039,0.0402,0.044,0.0443,0.0443,0.045,0.0456,0.0454,0.0431,0.0404,0.0369,0.0313,0.0279,0.0201,0.0132,0.0135,0.0053,0.0001,-0.0002,-0.0063,-0.0123,-0.0147,-0.0141,-0.0078,-0.0079,-0.0079,-0.008,0,0.0464,0.0472,0.0507,0.0506,0.0505,0.0514,0.0509,0.0495,0.0515,0.0497,0.0518,0.045,0.0432,0.0347,0.0206,0.018,0.0136,0.0091,-0.005,-0.0057,-0.0066,-0.0076,0.0048,0.0049,0.0049,0.0049,0.0049,0,0.0529,0.0557,0.0543,0.0567,0.0612,0.0583,0.0629,0.0619,0.0633,0.0696,0.0596,0.065,0.0474,0.0414,0.0273,0.0127,0.0185,-0.0029,-0.0059,-0.0058,-0.0066,-0.0006,-0.0012,0.0047,0.0047,0.0048,0.0048,0,0.0614,0.0601,0.065,0.0654,0.0651,0.0689,0.0705,0.0759,0.0749,0.0838,0.0844,0.0806,0.0721,0.0524,0.0381,0.0217,0.0084,0.0008,-0.0006,-0.0037,-0.0146,-0.0149,-0.0147,-0.0149,-0.0151,-0.0153,-0.0154,0,0.0661,0.0696,0.072,0.075,0.0751,0.0783,0.0824,0.0818,0.0896,0.0964,0.105,0.0969,0.0948,0.0678,0.0372,0.0088,0.0069,-0.0103,-0.0158,-0.0129,-0.0158,-0.0158,-0.0159,-0.017,-0.0171,-0.0173,-0.0173,0,0.0763,0.0771,0.0821,0.0864,0.0908,0.0966,0.1027,0.1117,0.116,0.124,0.1361,0.134,0.1028,0.0738,0.0299,0.0113,-0.0063,-0.0138,-0.0057,-0.0126,-0.0156,-0.0183,-0.0181,-0.0183,-0.0182,-0.0182,-0.0181,-0.0181,0.084,0.09,0.0945,0.0988,0.1045,0.1155,0.125,0.1358,0.1504,0.1615,0.1587,0.1515,0.1122,0.0541,0.0221,-0.0146,-0.014,-0.0272,-0.0266,-0.0259,-0.0258,-0.029,-0.0345,-0.0345,-0.0345,-0.0345,-0.0345,0,0.0925,0.0977,0.1048,0.1123,0.1213,0.1203,0.139,0.1504,0.1714,0.1734,0.1761,0.1378,0.1013,0.0592,0.0031,-0.0297,-0.0311,-0.0387,-0.0328,-0.0318,-0.0309,-0.0307,-0.0409,-0.0409,-0.041,-0.0411,0,0,0.0973,0.1078,0.111,0.1248,0.1296,0.1447,0.1576,0.1738,0.1804,0.1844,0.174,0.154,0.1053,0.0638,0.0196,-0.0095,-0.0126,-0.0159,-0.0082,0.0047,0.0061,-0.023,-0.0216,0,0,0,0,0]}],[{"header":{"parameterUnit":"m.s-1","parameterCategory":2,"la1":30.2991,"la2":30.254,"lo1":-89.0895,"lo2":-89.0444,"dy":0.0017,"dx":0.0017,"nx":28,"ny":28,"refTime":"2024-08-06T21:00:00:Z","depth":"4","parameterNumber":2,"parameterNumberName":"U-component_of_CURRENTS"},"data":[0,0,0,0,0,0,0,0,0,0,0,0,0,0,0,0,0,0,0,0,0,0,0,0,0,0,0,0,0,0,0,0,0,0,0,0,0,0,0,0,0,0,0,0,0,0,0,0,0,0,0,0,0,0,0,0,0,0,0.1017,0.1017,0,0.1096,0.1097,0.1098,0.1179,0.118,0.1181,0.1182,0.1287,0.1289,0.1291,0,0,0,0,0,0,0,0,0,0,0,0,0,0.0912,0.0914,0.1016,0.1017,0.1018,0.1095,0.1097,0.1098,0.1179,0.118,0.1181,0.1182,0.1287,0.1289,0.1291,0,0,0,0,0,0,0,0,0,0,0,0,0,0.0973,0.0914,0.1016,0.1066,0.1071,0.1095,0.1097,0.1098,0.1179,0.118,0.1181,0.1183,0.1286,0.1289,0.1292,0.1282,0,0,0.1301,0.1302,0,0,0,0,0,0,0,0,0.0969,0.0977,0.1058,0.1063,0.1069,0.1127,0.1098,0.116,0.1178,0.114,0.1182,0.1183,0.1234,0.1241,0.1256,0.1287,0.1292,0.1301,0.1303,0.1304,0.1305,0,0,0,0,0,0,0,0.0965,0.0974,0.105,0.1059,0.1065,0.1076,0.1087,0.111,0.118,0.1144,0.1149,0.1154,0.1237,0.1252,0.1259,0.1293,0.1301,0.1303,0.1305,0.1306,0.1435,0.1436,0,0,0,0,0,0,0.0951,0.097,0.1047,0.1052,0.1019,0.1077,0.1089,0.1109,0.118,0.1191,0.1153,0.1158,0.1247,0.1255,0.1263,0.1314,0.1304,0.1307,0.1308,0.1433,0.1435,0.1437,0,0,0,0,0,0,0.0949,0.0958,0.1044,0.101,0.1022,0.1077,0.1099,0.1109,0.1151,0.1186,0.1199,0.1186,0.1248,0.1259,0.1328,0.1317,0.1308,0.1311,0.1431,0.1434,0.1436,0.138,0,0,0,0,0,0,0.0945,0.0957,0.0973,0.101,0.1023,0.1072,0.1097,0.111,0.1149,0.1157,0.1218,0.1228,0.125,0.1324,0.1331,0.1321,0.1313,0.1429,0.1432,0.1435,0.138,0.1381,0.1381,0,0,0,0,0,0.0942,0.0956,0.0974,0.0983,0.1042,0.1072,0.108,0.1125,0.115,0.1168,0.123,0.1228,0.1348,0.1328,0.1336,0.1326,0.1428,0.1432,0.1435,0.138,0.138,0.1381,0,0,0,0,0,0,0.0914,0.0966,0.0987,0.1016,0.1047,0.1085,0.111,0.1134,0.1195,0.1222,0.1252,0.1267,0.1341,0.1346,0.1322,0.1379,0.1385,0.1391,0.1341,0.1342,0.1342,0.1416,0.1315,0,0,0,0,0,0.0914,0.0948,0.0985,0.1011,0.1031,0.1074,0.1095,0.1129,0.1179,0.1209,0.1253,0.1306,0.1356,0.136,0.1426,0.1431,0.1482,0.1433,0.1434,0.1433,0.1504,0.153,0.1539,0.1449,0.1449,0.1449,0,0,0.0909,0.0943,0.0962,0.1009,0.1044,0.1079,0.1093,0.1139,0.1168,0.1209,0.1281,0.1336,0.1376,0.1416,0.144,0.141,0.1487,0.1438,0.1437,0.151,0.1535,0.1543,0.1551,0.1452,0.1451,0.1451,0,0,0.0907,0.0951,0.0976,0.1008,0.1063,0.1097,0.1113,0.1172,0.12,0.1276,0.1314,0.1382,0.1439,0.1461,0.1475,0.1518,0.1524,0.1504,0.1515,0.1536,0.1543,0.1551,0.1619,0.1633,0.1456,0.1456,0.1455,0,0.0894,0.094,0.0984,0.1014,0.1044,0.1107,0.1136,0.1172,0.1247,0.1284,0.1312,0.146,0.1478,0.1516,0.1529,0.152,0.1545,0.149,0.1534,0.1542,0.155,0.1619,0.1635,0.1453,0.1454,0.1454,0.1454,0,0.0913,0.0953,0.0973,0.1042,0.1075,0.1119,0.1168,0.1222,0.1286,0.1337,0.1444,0.1498,0.1584,0.1562,0.1561,0.16,0.1607,0.1558,0.1521,0.1555,0.1627,0.1644,0.145,0.1451,0.1452,0.1452,0,0,0.0872,0.0967,0.0976,0.1011,0.1099,0.1128,0.1188,0.126,0.1329,0.1417,0.1499,0.1578,0.1637,0.1664,0.1644,0.1643,0.1699,0.1611,0.1613,0.1665,0.1777,0.1647,0.1654,0.1621,0.1624,0.1626,0.1799,0,0.0874,0.0928,0.0982,0.1046,0.1078,0.1158,0.1213,0.1291,0.1382,0.1483,0.1548,0.1657,0.1649,0.1694,0.1696,0.1713,0.1746,0.1662,0.1756,0.1762,0.1626,0.1669,0.1636,0.1812,0.1817,0.1819,0.1822,0,0.087,0.091,0.0962,0.1057,0.1083,0.1147,0.1272,0.1328,0.1467,0.1545,0.1663,0.1739,0.1805,0.1787,0.1869,0.1801,0.1828,0.1835,0.1839,0.1768,0.1664,0.1779,0.1854,0.1852,0.1849,0.1847,0.1845,0,0.081,0.0895,0.094,0.0973,0.1091,0.1149,0.1232,0.1367,0.1439,0.1605,0.1705,0.1807,0.189,0.1921,0.1967,0.1912,0.2058,0.1967,0.1907,0.19,0.1988,0.1979,0.208,0.208,0.2079,0.2079,0.2078,0,0.0784,0.082,0.0932,0.0961,0.1035,0.1135,0.125,0.1349,0.1517,0.1618,0.1744,0.1835,0.1927,0.2009,0.2016,0.2028,0.2105,0.1972,0.1938,0.1961,0.1947,0.2,0.1989,0.2085,0.2084,0.2083,0.2081,0,0.071,0.0781,0.0835,0.0967,0.1008,0.107,0.125,0.1341,0.1513,0.1648,0.1712,0.1891,0.1995,0.209,0.217,0.2096,0.2112,0.2112,0.2206,0.2165,0.1938,0.1922,0.205,0.2047,0.2044,0.2042,0.204,0,0.0677,0.0699,0.0815,0.0854,0.0925,0.1036,0.1116,0.131,0.1405,0.165,0.1698,0.1898,0.1992,0.204,0.2112,0.2173,0.2141,0.2147,0.1997,0.1983,0.1937,0.1925,0.1914,0.2036,0.2035,0.2034,0.2034,0,0.0608,0.066,0.071,0.078,0.0866,0.0949,0.1086,0.115,0.1369,0.1531,0.1671,0.1765,0.1899,0.1969,0.2068,0.2078,0.2114,0.2118,0.2122,0.1981,0.1967,0.1922,0.1913,0.2024,0.2026,0.2027,0.2027,0,0.0556,0.0572,0.064,0.0703,0.0789,0.0856,0.0937,0.1071,0.1193,0.1473,0.1502,0.1709,0.1877,0.1925,0.1979,0.2016,0.1964,0.186,0.1876,0.1887,0.1746,0.17,0.1685,0,0,0,0,0,0.0502,0.0517,0.0559,0.0627,0.0711,0.0758,0.0912,0.1006,0.1203,0.1268,0.14,0.1522,0.1654,0.1745,0.1754,0.1884,0.1954,0.1878,0.1835,0.1974,0.1984,0.1828,0,0,0,0,0,0,0.0464,0.0497,0.0523,0.0551,0.058,0.0664,0.0752,0.0884,0.0937,0.1145,0.1236,0.1391,0.1549,0.1642,0.1711,0.1741,0.1673,0.2007,0.2002,0.1968,0.1977,0.1986,0.1829,0,0,0,0,0]},{"header":{"parameterUnit":"m.s-1","parameterCategory":2,"la1":30.2991,"la2":30.254,"lo1":-89.0895,"lo2":-89.0444,"dy":0.0017,"dx":0.0017,"nx":28,"ny":28,"refTime":"2024-08-06T21:00:00:Z","depth":"4","parameterNumber":3,"parameterNumberName":"V-component_of_CURRENTS"},"data":[0,0,0,0,0,0,0,0,0,0,0,0,0,0,0,0,0,0,0,0,0,0,0,0,0,0,0,0,0,0,0,0,0,0,0,0,0,0,0,0,0,0,0,0,0,0,0,0,0,0,0,0,0,0,0,0,0,0,0.0156,0.0156,0,0.0116,0.0115,0.0115,0.0091,0.0091,0.0091,0.0091,0.0046,0.0045,0.0043,0,0,0,0,0,0,0,0,0,0,0,0,0,0.0165,0.0165,0.0156,0.0156,0.0155,0.0116,0.0115,0.0115,0.0091,0.0091,0.0091,0.0091,0.0046,0.0045,0.0043,0,0,0,0,0,0,0,0,0,0,0,0,0,0.0145,0.0165,0.0156,0.014,0.0139,0.0116,0.0115,0.0114,0.0091,0.0091,0.0091,0.0091,0.0047,0.0045,0.0043,0.0028,0,0,0.0037,0.0036,0,0,0,0,0,0,0,0,0.0146,0.0144,0.0143,0.0141,0.014,0.0111,0.0102,0.0086,0.0091,0.0107,0.0091,0.0092,0.0068,0.0065,0.0054,0.0026,0.0024,0.0037,0.0036,0.0035,0.0034,0,0,0,0,0,0,0,0.0148,0.0146,0.0138,0.0143,0.0141,0.012,0.0117,0.0099,0.0085,0.0105,0.0104,0.0103,0.0067,0.0056,0.0053,0.0023,0.0037,0.0035,0.0034,0.0033,-0.004,-0.004,0,0,0,0,0,0,0.0159,0.0147,0.0139,0.0137,0.0146,0.012,0.0117,0.0118,0.0086,0.0082,0.0103,0.0102,0.0059,0.0055,0.0051,0.0026,0.0035,0.0033,0.0032,-0.0039,-0.004,-0.0041,0,0,0,0,0,0,0.016,0.0159,0.0141,0.0143,0.0139,0.012,0.0121,0.0117,0.011,0.0085,0.008,0.0101,0.0059,0.0054,0.0034,0.0024,0.0032,0.0031,-0.0038,-0.0039,-0.004,-0.002,0,0,0,0,0,0,0.016,0.0159,0.0164,0.0144,0.014,0.0131,0.0121,0.0116,0.011,0.0108,0.0081,0.0076,0.0059,0.0037,0.0032,0.0022,0.0029,-0.0037,-0.0038,-0.004,-0.002,-0.0021,-0.0021,0,0,0,0,0,0.0161,0.0169,0.0164,0.0163,0.0147,0.0131,0.0127,0.0112,0.011,0.0106,0.0086,0.0078,0.0024,0.0035,0.0029,0.0019,-0.0036,-0.0038,-0.004,-0.002,-0.002,-0.0021,0,0,0,0,0,0,0.0174,0.0167,0.0161,0.0167,0.0152,0.0128,0.0126,0.0116,0.0096,0.0097,0.0072,0.0066,0.0042,0.0027,0.004,-0.0009,-0.001,-0.0013,0.0007,0.0006,0.0006,0.0022,0.0027,0,0,0,0,0,0.018,0.0184,0.0169,0.0172,0.0168,0.0148,0.0141,0.013,0.0111,0.0103,0.0084,0.0058,0.0029,0.0017,-0.0008,-0.0029,-0.0053,-0.0043,-0.0043,-0.0043,-0.0035,-0.0107,-0.0113,-0.0046,-0.0046,-0.0046,0,0,0.0184,0.0182,0.0184,0.0175,0.0164,0.016,0.0143,0.0136,0.0129,0.0101,0.0088,0.0058,0.0022,-0.0005,-0.0018,-0.0017,-0.0071,-0.0046,-0.0045,-0.0037,-0.0109,-0.0116,-0.0122,-0.0047,-0.0047,-0.0047,0,0,0.0197,0.0196,0.0203,0.0196,0.0185,0.0171,0.0172,0.0151,0.0139,0.0122,0.0092,0.006,0.0028,-0.0007,-0.0028,-0.0047,-0.0073,-0.0059,-0.0046,-0.0115,-0.0121,-0.0127,-0.0143,-0.0151,-0.0058,-0.0058,-0.0058,0,0.0203,0.0213,0.0201,0.0206,0.0206,0.018,0.0186,0.0166,0.014,0.013,0.0124,0.0057,0.0026,-0.0019,-0.003,-0.0047,-0.0076,-0.0037,-0.0116,-0.0122,-0.0128,-0.0144,-0.0152,-0.0057,-0.0057,-0.0057,-0.0057,0,0.0218,0.0229,0.0233,0.0234,0.0227,0.0229,0.0206,0.0193,0.0179,0.0158,0.0119,0.007,0.0033,0.0007,-0.0016,-0.0077,-0.0078,-0.0109,-0.011,-0.0133,-0.0148,-0.0157,-0.0056,-0.0056,-0.0056,-0.0056,0,0,0.0227,0.0242,0.0245,0.0257,0.0246,0.0244,0.0231,0.0213,0.0211,0.0169,0.0154,0.0086,0.0062,0.0036,-0.0008,-0.0072,-0.0137,-0.0105,-0.011,-0.0113,-0.0259,-0.0243,-0.0251,-0.0192,-0.0194,-0.0195,-0.0244,0,0.0244,0.0271,0.0268,0.0289,0.0301,0.028,0.0275,0.0252,0.023,0.0207,0.0141,0.0114,0.0072,0.0055,-0.0019,-0.0115,-0.0164,-0.0119,-0.0243,-0.0245,-0.0223,-0.0263,-0.0202,-0.025,-0.0252,-0.0254,-0.0255,0,0.0258,0.0278,0.0309,0.033,0.0333,0.0341,0.0335,0.0327,0.0282,0.0265,0.0218,0.0172,0.0085,0.005,-0.0111,-0.0083,-0.0161,-0.0233,-0.0237,-0.0235,-0.0248,-0.0231,-0.0272,-0.027,-0.0269,-0.0268,-0.0267,0,0.0277,0.0305,0.0336,0.0343,0.0358,0.0369,0.0373,0.0349,0.0359,0.0306,0.0304,0.0196,0.0152,0.0017,-0.0121,-0.0125,-0.0297,-0.032,-0.0367,-0.0364,-0.037,-0.0364,-0.0427,-0.0427,-0.0426,-0.0426,-0.0426,0,0.0298,0.0321,0.0355,0.0374,0.0412,0.0408,0.0441,0.0426,0.0423,0.0436,0.0344,0.0318,0.0134,0.002,-0.0112,-0.0262,-0.0289,-0.0364,-0.039,-0.0356,-0.0349,-0.0375,-0.0368,-0.0428,-0.0428,-0.0427,-0.0427,0,0.0312,0.0332,0.0373,0.041,0.0426,0.0455,0.0507,0.0533,0.0517,0.0527,0.0518,0.0403,0.025,0.0084,-0.0132,-0.0231,-0.0387,-0.0426,-0.0341,-0.0361,-0.0401,-0.0393,-0.0481,-0.0481,-0.0482,-0.0482,-0.0482,0,0.0321,0.0346,0.0407,0.0442,0.0466,0.0515,0.0557,0.0578,0.0607,0.0575,0.0577,0.0454,0.0356,0.0083,-0.0115,-0.0343,-0.0378,-0.0441,-0.0456,-0.0398,-0.0413,-0.0405,-0.0397,-0.0482,-0.0482,-0.0482,-0.0482,0,0.0337,0.0362,0.0399,0.0475,0.0535,0.0602,0.0659,0.0687,0.0703,0.0698,0.0636,0.0496,0.0327,0.0098,-0.0071,-0.0246,-0.0403,-0.0443,-0.0444,-0.0459,-0.04,-0.0413,-0.0405,-0.0482,-0.0482,-0.0482,-0.0482,0,0.0349,0.038,0.0436,0.0503,0.0586,0.0663,0.0686,0.0719,0.075,0.0722,0.0693,0.0511,0.0405,0.0148,-0.0025,-0.0183,-0.0226,-0.028,-0.0291,-0.0293,-0.0237,-0.0134,-0.016,0,0,0,0,0,0.0358,0.0398,0.0459,0.0547,0.0636,0.0684,0.0747,0.0762,0.0775,0.0756,0.0737,0.0586,0.0331,0.0195,0.0045,-0.0046,-0.0269,-0.0231,-0.0339,-0.0485,-0.0484,-0.0452,0,0,0,0,0,0,0.0364,0.0419,0.0456,0.0576,0.0644,0.0748,0.0787,0.0793,0.077,0.0753,0.0615,0.0562,0.0303,0.0438,0.0052,-0.0002,-0.0091,-0.0349,-0.0353,-0.0485,-0.0485,-0.0484,-0.0451,0,0,0,0,0]}]]